When you browse on this site, cookies collect data to enhance your experience and personalize the content and advertising you see.
Visit our Privacy Policy to learn more. By continuing to use the site, you agree to this use of cookies and data.
  • Em Portugal
  • Lista de países
  • Para 7 dias
  • Temperatura da água
  • Mapas de satélite
  • Mapa do tempo
  • Widgets de tempo
  • user-avatar
    Iniciar Sessão

    Previsão horária em Maceió

    Hoje, 17 Janeiro, Quinta-feira

    Tempo Temperatura Precipitação Vento Pressão Humidade
    00:00 +27°C° 0.4 mm 3 m/s 760 mmHg 92%
    01:00 +27°C° 0.4 mm 3 m/s 760 mmHg 92%
    02:00 +27°C° 0.5 mm 3 m/s 760 mmHg 92%
    03:00 +26°C° 0.5 mm 3 m/s 760 mmHg 92%
    04:00 +26°C° 0.5 mm 3 m/s 759 mmHg 92%
    05:00 +27°C° 0.6 mm 3 m/s 760 mmHg 91%
    06:00 +27°C° 0.6 mm 2 m/s 760 mmHg 90%
    07:00 +27°C° 0.6 mm 2 m/s 760 mmHg 89%
    08:00 +28°C° 0.4 mm 3 m/s 760 mmHg 83%
    09:00 +29°C° 0.4 mm 3 m/s 760 mmHg 77%
    10:00 +31°C° 0.4 mm 3 m/s 760 mmHg 70%
    11:00 +33°C° 0.2 mm 4 m/s 760 mmHg 66%
    12:00 +33°C° 0.2 mm 4 m/s 760 mmHg 62%
    13:00 +34°C° 0.2 mm 5 m/s 760 mmHg 58%
    14:00 +34°C° 0.1 mm 5 m/s 759 mmHg 59%
    15:00 +34°C° 0.1 mm 5 m/s 759 mmHg 61%
    16:00 +33°C° 0.1 mm 5 m/s 759 mmHg 62%
    17:00 +32°C° 0.1 mm 5 m/s 759 mmHg 68%
    18:00 +29°C° 0.1 mm 4 m/s 759 mmHg 75%
    19:00 +28°C° 0.1 mm 4 m/s 759 mmHg 82%
    20:00 +28°C° 0.2 mm 4 m/s 759 mmHg 84%
    21:00 +27°C° 0.2 mm 4 m/s 759 mmHg 86%
    22:00 +27°C° 0.2 mm 3 m/s 760 mmHg 89%
    23:00 +27°C° 0.2 mm 3 m/s 759 mmHg 89%

    Amanhã, 18 Janeiro, Sexta-feira

    Tempo Temperatura Precipitação Vento Pressão Humidade
    00:00 +27°C° 0.2 mm 3 m/s 759 mmHg 90%
    01:00 +26°C° 0.2 mm 3 m/s 759 mmHg 91%
    02:00 +26°C° 0.2 mm 3 m/s 759 mmHg 91%
    03:00 +26°C° 0.2 mm 3 m/s 759 mmHg 92%
    04:00 +26°C° 0.2 mm 2 m/s 758 mmHg 92%
    05:00 +26°C° 0.2 mm 2 m/s 759 mmHg 91%
    06:00 +26°C° 0.2 mm 2 m/s 759 mmHg 90%
    07:00 +27°C° 0.2 mm 3 m/s 759 mmHg 89%
    08:00 +28°C° 0.1 mm 3 m/s 759 mmHg 81%
    09:00 +29°C° 0.1 mm 3 m/s 760 mmHg 74%
    10:00 +32°C° 0.1 mm 4 m/s 760 mmHg 67%
    11:00 +33°C° 0 mm 4 m/s 760 mmHg 63%
    12:00 +33°C° 0 mm 5 m/s 760 mmHg 59%
    13:00 +34°C° 0 mm 5 m/s 759 mmHg 54%
    14:00 +34°C° 0 mm 5 m/s 759 mmHg 55%
    15:00 +34°C° 0 mm 5 m/s 758 mmHg 56%
    16:00 +33°C° 0 mm 5 m/s 758 mmHg 57%
    17:00 +32°C° 0 mm 5 m/s 758 mmHg 64%
    18:00 +29°C° 0 mm 5 m/s 758 mmHg 71%
    19:00 +28°C° 0 mm 4 m/s 758 mmHg 77%
    20:00 +28°C° 0 mm 4 m/s 759 mmHg 80%
    21:00 +27°C° 0 mm 4 m/s 759 mmHg 83%
    22:00 +27°C° 0 mm 3 m/s 760 mmHg 85%
    23:00 +27°C° 0.1 mm 3 m/s 760 mmHg 87%

    Depois de amanhã, 19 Janeiro, Sábado

    Tempo Temperatura Precipitação Vento Pressão Humidade
    00:00 +26°C° 0.1 mm 3 m/s 759 mmHg 88%
    01:00 +26°C° 0.1 mm 3 m/s 759 mmHg 89%
    02:00 +26°C° 0.1 mm 2 m/s 759 mmHg 90%
    03:00 +26°C° 0.1 mm 2 m/s 758 mmHg 91%
    04:00 +26°C° 0.1 mm 2 m/s 758 mmHg 92%
    05:00 +26°C° 0.1 mm 2 m/s 758 mmHg 91%
    06:00 +26°C° 0.1 mm 2 m/s 758 mmHg 90%
    07:00 +26°C° 0.1 mm 2 m/s 759 mmHg 89%
    08:00 +28°C° 0.1 mm 2 m/s 759 mmHg 81%
    09:00 +30°C° 0.1 mm 3 m/s 760 mmHg 73%
    10:00 +31°C° 0.1 mm 3 m/s 760 mmHg 66%
    11:00 +32°C° 0.4 mm 4 m/s 760 mmHg 66%
    12:00 +32°C° 0.4 mm 4 m/s 759 mmHg 66%
    13:00 +33°C° 0.4 mm 4 m/s 759 mmHg 66%
    14:00 +33°C° 0.3 mm 5 m/s 759 mmHg 65%
    15:00 +33°C° 0.3 mm 5 m/s 758 mmHg 65%
    16:00 +33°C° 0.3 mm 5 m/s 758 mmHg 65%
    17:00 +30°C° 0 mm 5 m/s 758 mmHg 69%
    18:00 +29°C° 0 mm 4 m/s 758 mmHg 74%
    19:00 +28°C° 0 mm 4 m/s 759 mmHg 78%
    20:00 +28°C° 0 mm 4 m/s 759 mmHg 80%
    21:00 +27°C° 0 mm 4 m/s 760 mmHg 83%
    22:00 +27°C° 0 mm 3 m/s 760 mmHg 85%
    23:00 +27°C° 0.1 mm 3 m/s 760 mmHg 86%

    20 Janeiro, Domingo

    Tempo Temperatura Precipitação Vento Pressão Humidade
    00:00 +27°C° 0.1 mm 3 m/s 760 mmHg 88%
    01:00 +27°C° 0.1 mm 3 m/s 759 mmHg 89%
    02:00 +26°C° 0.1 mm 3 m/s 759 mmHg 90%
    03:00 +26°C° 0.1 mm 3 m/s 759 mmHg 91%
    04:00 +26°C° 0.1 mm 2 m/s 758 mmHg 91%
    05:00 +26°C° 0.2 mm 2 m/s 759 mmHg 91%
    06:00 +27°C° 0.2 mm 2 m/s 759 mmHg 90%
    07:00 +27°C° 0.2 mm 2 m/s 759 mmHg 89%
    08:00 +28°C° 0.9 mm 3 m/s 760 mmHg 82%
    09:00 +30°C° 0.9 mm 3 m/s 760 mmHg 76%
    10:00 +31°C° 0.9 mm 3 m/s 761 mmHg 70%
    11:00 +32°C° 1.1 mm 4 m/s 760 mmHg 69%
    12:00 +33°C° 1.1 mm 4 m/s 760 mmHg 69%
    13:00 +33°C° 1.1 mm 5 m/s 759 mmHg 68%
    14:00 +33°C° 0.2 mm 5 m/s 759 mmHg 67%
    15:00 +33°C° 0.2 mm 5 m/s 759 mmHg 67%
    16:00 +33°C° 0.2 mm 5 m/s 758 mmHg 66%
    17:00 +32°C° 0.6 mm 5 m/s 759 mmHg 73%
    18:00 +29°C° 0.6 mm 4 m/s 759 mmHg 80%
    19:00 +28°C° 0.6 mm 4 m/s 759 mmHg 88%
    20:00 +27°C° 0.3 mm 4 m/s 760 mmHg 89%
    21:00 +27°C° 0.3 mm 3 m/s 760 mmHg 90%
    22:00 +27°C° 0.3 mm 3 m/s 761 mmHg 91%
    23:00 +27°C° 0.4 mm 3 m/s 760 mmHg 92%

    21 Janeiro, Segunda-feira

    Tempo Temperatura Precipitação Vento Pressão Humidade
    00:00 +27°C° 0.4 mm 3 m/s 760 mmHg 92%
    01:00 +27°C° 0.4 mm 3 m/s 760 mmHg 92%
    02:00 +26°C° 0.7 mm 2 m/s 759 mmHg 93%
    03:00 +26°C° 0.7 mm 2 m/s 759 mmHg 93%
    04:00 +26°C° 0.7 mm 2 m/s 759 mmHg 93%
    05:00 +26°C° 0.4 mm 2 m/s 759 mmHg 92%
    06:00 +27°C° 0.4 mm 2 m/s 760 mmHg 91%
    07:00 +27°C° 0.4 mm 2 m/s 760 mmHg 90%
    08:00 +28°C° 0.3 mm 3 m/s 760 mmHg 82%
    09:00 +30°C° 0.3 mm 3 m/s 760 mmHg 75%
    10:00 +32°C° 0.3 mm 4 m/s 760 mmHg 67%
    11:00 +33°C° 0.5 mm 4 m/s 760 mmHg 67%
    12:00 +33°C° 0.5 mm 5 m/s 760 mmHg 68%
    13:00 +33°C° 0.5 mm 6 m/s 759 mmHg 68%
    14:00 +33°C° 0.3 mm 6 m/s 759 mmHg 68%
    15:00 +33°C° 0.3 mm 6 m/s 758 mmHg 68%
    16:00 +33°C° 0.3 mm 6 m/s 758 mmHg 68%
    17:00 +30°C° 0 mm 6 m/s 758 mmHg 71%
    18:00 +29°C° 0 mm 5 m/s 759 mmHg 75%
    19:00 +28°C° 0 mm 4 m/s 759 mmHg 78%
    20:00 +28°C° 0 mm 4 m/s 760 mmHg 80%
    21:00 +28°C° 0 mm 4 m/s 760 mmHg 82%
    22:00 +27°C° 0 mm 4 m/s 761 mmHg 84%
    23:00 +27°C° 0 mm 4 m/s 760 mmHg 85%

    22 Janeiro, Terça-feira

    Tempo Temperatura Precipitação Vento Pressão Humidade
    00:00 +27°C° 0 mm 3 m/s 760 mmHg 86%
    01:00 +27°C° 0 mm 3 m/s 760 mmHg 86%
    02:00 +27°C° 0.1 mm 3 m/s 760 mmHg 86%
    03:00 +26°C° 0.1 mm 3 m/s 759 mmHg 86%
    04:00 +26°C° 0.1 mm 3 m/s 759 mmHg 87%
    05:00 +26°C° 0.1 mm 3 m/s 759 mmHg 86%
    06:00 +26°C° 0.1 mm 2 m/s 760 mmHg 85%
    07:00 +27°C° 0.1 mm 2 m/s 760 mmHg 85%
    08:00 +28°C° 0.1 mm 3 m/s 760 mmHg 76%
    09:00 +30°C° 0.1 mm 3 m/s 760 mmHg 66%
    10:00 +33°C° 0.1 mm 3 m/s 761 mmHg 57%
    11:00 +34°C° 0 mm 3 m/s 760 mmHg 54%
    12:00 +34°C° 0 mm 4 m/s 760 mmHg 52%
    13:00 +35°C° 0 mm 4 m/s 759 mmHg 49%
    14:00 +35°C° 0 mm 4 m/s 759 mmHg 49%
    15:00 +35°C° 0 mm 4 m/s 758 mmHg 50%
    16:00 +34°C° 0 mm 4 m/s 758 mmHg 50%
    17:00 +33°C° 0 mm 4 m/s 758 mmHg 57%
    18:00 +30°C° 0 mm 4 m/s 758 mmHg 65%
    19:00 +28°C° 0 mm 3 m/s 759 mmHg 72%
    20:00 +28°C° 0 mm 3 m/s 759 mmHg 76%
    21:00 +27°C° 0 mm 3 m/s 759 mmHg 79%
    22:00 +27°C° 0 mm 2 m/s 760 mmHg 83%
    23:00 +27°C° 0.2 mm 2 m/s 759 mmHg 84%
    Mostrar mais